Location: Chevoux
(46.3801°N, 4.9476°E)
Time: 22:46:20
(UTC+00:00)

ATLAS 5 CENTAUR R/B - Pass Details

Date: 28 January 2021
Orbit: 511 x 1147 km, 63.3° (Epoch: 16 February)

Event Time Altitude Azimuth Distance (km) Brightness Sun altitude
Rises 17:52:08 0° 296° (WNW) 2,832 5.8 -12.7°
Reaches altitude 10° 17:55:48 10° 329° (NNW) 2,057 4.5 -13.4°
Maximum altitude 17:57:33 12° 351° (N) 1,999 4.1 -13.6°
Drops below altitude 10° 17:59:23 10° 13° (NNE) 2,197 4.1 -14.0°
Enters shadow 18:00:55 - 27° (NNE) 2,517 4.3 -14.2°
